User: anonymous   Login
Location: Viterbo
(42.4170°N, 12.1000°E)
Time: 23:16:12
(UTC+01:00)
Language:

STARS - Orbit

View from above orbital plane
View from above orbital plane
View from above satellite
View from above satellite

Ground track
Ground track

The orbit data is extracted from the following two-line orbital elements,

1 33498U 09002G   20028.55152252 +.00000139 +00000-0 +26257-4 0  9996
2 33498 098.2818 249.6781 0011159 164.6438 195.5113 14.79082757592675
Epoch (UTC): 28 January 2020 13:14:11
Eccentricity: 0.0011159
inclination: 98.2818°
perigee height: 624 km
apogee height: 640 km
right ascension of ascending node: 249.6781°
argument of perigee: 164.6438°
revolutions per day: 14.79082757
mean anomaly at epoch: 195.5113°
orbit number at epoch: 59267

The dashed part of the orbit path shows where the satellite is in the earth's shadow,  

DLR